[[{"header":{"parameterUnit":"m.s-1","parameterCategory":1,"la1":30.2991,"la2":30.254,"lo1":-89.0895,"lo2":-89.0444,"dy":0.0017,"dx":0.0017,"nx":28,"ny":28,"refTime":"2024-08-29T09:00:00:Z","depth":0,"parameterNumber":2,"parameterNumberName":"U-component_of_WINDS"},"data":[0,0,0,0,0,0,0,0,0,0,0,0,0,0,0,0,0,0,0,0,0,0,0,0,0,0,0,0,0,0,0,0,0,0,0,0,0,0,0,0,0,0,0,0,0,0,0,0,0,0,0,0,0,0,0,0,0,0,-2.6209,-2.6208,0,-2.6131,-2.613,-2.6129,-2.6032,-2.6031,-2.6029,-2.6028,-2.5949,-2.5948,-2.5947,0,0,0,0,0,0,0,0,0,0,0,0,0,-2.6276,-2.6276,-2.6209,-2.6208,-2.6207,-2.6131,-2.613,-2.6128,-2.6033,-2.6031,-2.6029,-2.6027,-2.5949,-2.5948,-2.5947,0,0,0,0,0,0,0,0,0,0,0,0,0,-2.6228,-2.6275,-2.6209,-2.615,-2.6144,-2.6131,-2.613,-2.6128,-2.6033,-2.6031,-2.6028,-2.6026,-2.5949,-2.5948,-2.5947,-2.5987,0,0,-2.5944,-2.5944,0,0,0,0,0,0,0,0,-2.623,-2.6225,-2.616,-2.6154,-2.6147,-2.6089,-2.6124,-2.6081,-2.6034,-2.6075,-2.6028,-2.6025,-2.5997,-2.5992,-2.5983,-2.5983,-2.5979,-2.5944,-2.5943,-2.5943,-2.5943,0,0,0,0,0,0,0,-2.6234,-2.6228,-2.6178,-2.6159,-2.6151,-2.6127,-2.6118,-2.6115,-2.605,-2.6071,-2.6064,-2.6056,-2.5994,-2.5984,-2.598,-2.5978,-2.5944,-2.5943,-2.5943,-2.5942,-2.6004,-2.6006,0,0,0,0,0,0,-2.6246,-2.6231,-2.6181,-2.6176,-2.6184,-2.6128,-2.6117,-2.611,-2.605,-2.6038,-2.6058,-2.6052,-2.5987,-2.5981,-2.5977,-2.6017,-2.5943,-2.5942,-2.5941,-2.6002,-2.6005,-2.6007,0,0,0,0,0,0,-2.6248,-2.6242,-2.6184,-2.6202,-2.6192,-2.6129,-2.6122,-2.611,-2.61,-2.604,-2.6028,-2.606,-2.5985,-2.5978,-2.5984,-2.6013,-2.5942,-2.5941,-2.5999,-2.6003,-2.6006,-2.6098,0,0,0,0,0,0,-2.625,-2.6244,-2.6258,-2.6203,-2.6192,-2.6193,-2.6123,-2.611,-2.6098,-2.6089,-2.6038,-2.6028,-2.5982,-2.5986,-2.5983,-2.601,-2.594,-2.5996,-2.6001,-2.6005,-2.6092,-2.6105,-2.6115,0,0,0,0,0,-2.6253,-2.6288,-2.6259,-2.6254,-2.6208,-2.6195,-2.6188,-2.6135,-2.6101,-2.6114,-2.6075,-2.603,-2.601,-2.5988,-2.5983,-2.601,-2.5994,-2.6,-2.6005,-2.6087,-2.6102,-2.6115,0,0,0,0,0,0,-2.635,-2.628,-2.6247,-2.6265,-2.6236,-2.6178,-2.6194,-2.6152,-2.6133,-2.6126,-2.606,-2.605,-2.6063,-2.6037,-2.6013,-2.6044,-2.5995,-2.6,-2.606,-2.6073,-2.6084,-2.609,-2.5939,0,0,0,0,0,-2.6373,-2.6367,-2.6307,-2.6329,-2.6316,-2.6258,-2.625,-2.6211,-2.6178,-2.6166,-2.6128,-2.6098,-2.6085,-2.6078,-2.6063,-2.6089,-2.6075,-2.6105,-2.6116,-2.6126,-2.613,-2.6139,-2.6151,-2.6024,-2.6024,-2.6024,0,0,-2.6421,-2.6382,-2.6383,-2.6347,-2.632,-2.6315,-2.6248,-2.6247,-2.6242,-2.6166,-2.6168,-2.6139,-2.6102,-2.6117,-2.6122,-2.6096,-2.6162,-2.6132,-2.614,-2.6139,-2.6146,-2.6158,-2.6169,-2.6027,-2.6027,-2.6026,0,0,-2.6506,-2.6477,-2.6491,-2.6465,-2.6425,-2.6385,-2.6389,-2.6337,-2.6314,-2.6315,-2.6257,-2.6251,-2.6231,-2.6206,-2.6191,-2.6265,-2.6221,-2.6262,-2.632,-2.633,-2.634,-2.6348,-2.6373,-2.6383,-2.6267,-2.6267,-2.6267,0,-2.6572,-2.6562,-2.6504,-2.6505,-2.649,-2.642,-2.6433,-2.6411,-2.6368,-2.6359,-2.6331,-2.6302,-2.6273,-2.628,-2.6298,-2.6289,-2.6289,-2.6267,-2.6343,-2.6351,-2.6358,-2.6381,-2.639,-2.6272,-2.6272,-2.6271,-2.6271,0,-2.6643,-2.6637,-2.6653,-2.6612,-2.6599,-2.6607,-2.6549,-2.6544,-2.6506,-2.6469,-2.6471,-2.6432,-2.6407,-2.6406,-2.637,-2.6408,-2.6393,-2.6355,-2.6305,-2.6376,-2.6396,-2.6405,-2.6279,-2.6278,-2.6276,-2.6275,0,0,-2.6787,-2.6712,-2.6719,-2.6699,-2.6648,-2.6643,-2.6647,-2.6621,-2.6616,-2.6589,-2.659,-2.6573,-2.6537,-2.652,-2.648,-2.6489,-2.6547,-2.6449,-2.6447,-2.6467,-2.6585,-2.6612,-2.6624,-2.6519,-2.652,-2.6521,-2.6587,0,-2.6862,-2.6863,-2.681,-2.6826,-2.6819,-2.6752,-2.6754,-2.6724,-2.669,-2.6679,-2.6641,-2.663,-2.6584,-2.6573,-2.6579,-2.6539,-2.657,-2.6534,-2.6517,-2.6518,-2.6527,-2.6634,-2.6664,-2.6728,-2.6595,-2.6596,-2.6597,0,-2.6949,-2.6925,-2.694,-2.6887,-2.6882,-2.6886,-2.6857,-2.6848,-2.6811,-2.6785,-2.6765,-2.6719,-2.6718,-2.6672,-2.6669,-2.6646,-2.6636,-2.6615,-2.6617,-2.6612,-2.6561,-2.6631,-2.6747,-2.6757,-2.6609,-2.6608,-2.6607,0,-2.705,-2.7022,-2.7026,-2.7011,-2.695,-2.6954,-2.6929,-2.689,-2.6877,-2.6852,-2.6843,-2.6819,-2.6806,-2.6788,-2.6736,-2.6707,-2.6739,-2.6688,-2.6717,-2.6718,-2.6725,-2.6725,-2.6841,-2.6722,-2.6722,-2.6722,-2.6722,0,-2.7138,-2.715,-2.7071,-2.7074,-2.7084,-2.7023,-2.7035,-2.7003,-2.6969,-2.6963,-2.6905,-2.6901,-2.6834,-2.6823,-2.6782,-2.6785,-2.678,-2.6759,-2.6747,-2.6763,-2.6765,-2.6755,-2.6748,-2.6724,-2.6724,-2.6723,-2.6723,0,-2.7253,-2.72,-2.7201,-2.7142,-2.7128,-2.7138,-2.7087,-2.7087,-2.7049,-2.7043,-2.7039,-2.6979,-2.6962,-2.6909,-2.688,-2.6853,-2.6867,-2.6847,-2.6879,-2.6872,-2.6902,-2.69,-2.7013,-2.7024,-2.6901,-2.6902,-2.6904,0,-2.7311,-2.7318,-2.726,-2.7252,-2.7229,-2.7217,-2.7203,-2.7143,-2.7131,-2.7089,-2.7094,-2.7072,-2.7052,-2.7029,-2.6983,-2.6959,-2.6937,-2.6979,-2.6933,-2.6948,-2.6936,-2.6935,-2.6935,-2.6988,-2.699,-2.6991,-2.6992,0,-2.7421,-2.7394,-2.7377,-2.735,-2.7335,-2.7311,-2.7283,-2.728,-2.7213,-2.7202,-2.7184,-2.7168,-2.7137,-2.7116,-2.7085,-2.7059,-2.7014,-2.7007,-2.7012,-2.7027,-2.7045,-2.7034,-2.6904,-2.7004,-2.7003,-2.7002,-2.7002,-2.7001,-2.7508,-2.751,-2.7469,-2.7451,-2.7423,-2.7399,-2.7395,-2.7356,-2.7339,-2.7309,-2.7274,-2.726,-2.7221,-2.7174,-2.7151,-2.7139,-2.7115,-2.7122,-2.7124,-2.7126,-2.7133,-2.7048,-2.7133,-2.7133,-2.7132,-2.7132,-2.7132,0,-2.7613,-2.7582,-2.7566,-2.7529,-2.7514,-2.7473,-2.744,-2.743,-2.7418,-2.7386,-2.7366,-2.7344,-2.7323,-2.7275,-2.7249,-2.7248,-2.7227,-2.7243,-2.7242,-2.7236,-2.7157,-2.7154,-2.7261,-2.7261,-2.7261,-2.7261,-2.7261,-2.7261,-2.7666,-2.7666,-2.7635,-2.7621,-2.759,-2.7575,-2.7559,-2.7535,-2.7509,-2.7487,-2.7469,-2.7437,-2.7398,-2.7368,-2.7346,-2.7333,-2.7325,-2.7348,-2.7328,-2.7254,-2.7242,-2.723,-2.7227,-2.7347,-2.7347,-2.7407,-2.7408,-2.7408]},{"header":{"parameterUnit":"m.s-1","parameterCategory":1,"la1":30.2991,"la2":30.254,"lo1":-89.0895,"lo2":-89.0444,"dy":0.0017,"dx":0.0017,"nx":28,"ny":28,"refTime":"2024-08-29T09:00:00:Z","depth":0,"parameterNumber":3,"parameterNumberName":"V-component_of_WINDS"},"data":[0,0,0,0,0,0,0,0,0,0,0,0,0,0,0,0,0,0,0,0,0,0,0,0,0,0,0,0,0,0,0,0,0,0,0,0,0,0,0,0,0,0,0,0,0,0,0,0,0,0,0,0,0,0,0,0,0,0,2.4193,2.4191,0,2.4021,2.4019,2.4017,2.383,2.3827,2.3825,2.3822,2.364,2.3638,2.3636,0,0,0,0,0,0,0,0,0,0,0,0,0,2.4356,2.4354,2.4193,2.4191,2.4189,2.4021,2.4019,2.4016,2.383,2.3827,2.3824,2.3821,2.3641,2.3638,2.3635,0,0,0,0,0,0,0,0,0,0,0,0,0,2.4244,2.4353,2.4194,2.4076,2.4064,2.4021,2.4018,2.4016,2.3831,2.3827,2.3823,2.3819,2.3642,2.3639,2.3635,2.3693,0,0,2.3624,2.3623,0,0,0,0,0,0,0,0,2.4251,2.4239,2.4096,2.4084,2.407,2.3943,2.4009,2.3907,2.3832,2.3919,2.3822,2.3817,2.3744,2.3732,2.3708,2.3684,2.3676,2.3624,2.3622,2.362,2.3619,0,0,0,0,0,0,0,2.4259,2.4245,2.4125,2.4094,2.4078,2.403,2.401,2.3989,2.3856,2.3911,2.3898,2.388,2.3736,2.3712,2.3702,2.3674,2.3624,2.3621,2.3619,2.3617,2.3685,2.3688,0,0,0,0,0,0,2.4285,2.4253,2.413,2.412,2.4153,2.403,2.4008,2.3988,2.3856,2.3832,2.3884,2.3872,2.372,2.3707,2.3695,2.3752,2.362,2.3617,2.3615,2.3681,2.3686,2.369,0,0,0,0,0,0,2.4289,2.4276,2.4137,2.4182,2.4161,2.4032,2.4011,2.3986,2.3962,2.3835,2.3809,2.3884,2.3716,2.37,2.3694,2.3743,2.3615,2.3612,2.3676,2.3682,2.3688,2.3868,0,0,0,0,0,0,2.4295,2.4279,2.4301,2.4184,2.4159,2.4142,2.4014,2.3986,2.3957,2.394,2.3828,2.3805,2.3712,2.3701,2.3691,2.3736,2.3609,2.3671,2.3679,2.3686,2.3857,2.3879,2.3898,0,0,0,0,0,2.4301,2.4358,2.4303,2.429,2.4185,2.4146,2.4131,2.4024,2.3962,2.3982,2.3899,2.3809,2.374,2.3702,2.3689,2.3734,2.3668,2.3677,2.3685,2.3848,2.3875,2.3898,0,0,0,0,0,0,2.4483,2.4341,2.4278,2.43,2.4236,2.4114,2.4137,2.4056,2.4008,2.3994,2.3861,2.3837,2.3846,2.3789,2.3749,2.3781,2.369,2.3697,2.3818,2.3843,2.3863,2.3876,2.3606,0,0,0,0,0,2.4526,2.4508,2.4384,2.4414,2.4386,2.4267,2.4246,2.4169,2.4097,2.4069,2.3986,2.3918,2.388,2.3858,2.3816,2.3847,2.3819,2.3871,2.3892,2.391,2.3917,2.3926,2.3947,2.3719,2.3719,2.3719,0,0,2.4614,2.4534,2.453,2.4449,2.439,2.4372,2.4246,2.4232,2.4217,2.4066,2.4055,2.3992,2.3907,2.392,2.3921,2.3872,2.3973,2.3921,2.3936,2.3933,2.3937,2.3959,2.3978,2.3725,2.3724,2.3723,0,0,2.4765,2.4704,2.4721,2.4665,2.4579,2.4499,2.4504,2.4393,2.4346,2.4334,2.4219,2.4197,2.4136,2.4079,2.4043,2.417,2.4084,2.416,2.4267,2.4278,2.4296,2.4311,2.4354,2.4372,2.4167,2.4168,2.4168,0,2.4885,2.4855,2.474,2.4733,2.47,2.4563,2.4578,2.4529,2.4433,2.4412,2.4359,2.4278,2.4211,2.4207,2.4238,2.4213,2.4212,2.4172,2.4303,2.4317,2.4329,2.4369,2.4386,2.4177,2.4176,2.4175,2.4174,0,2.5005,2.4986,2.501,2.4922,2.4891,2.4896,2.4779,2.4761,2.4686,2.4611,2.4598,2.4513,2.4451,2.4444,2.4371,2.4429,2.4401,2.4328,2.4234,2.4363,2.4398,2.4412,2.4191,2.4188,2.4185,2.4183,0,0,2.5267,2.5114,2.5125,2.5082,2.4976,2.4958,2.4955,2.4895,2.4881,2.4819,2.4811,2.4761,2.4692,2.465,2.4568,2.4578,2.4681,2.4502,2.4498,2.4537,2.4737,2.4793,2.4813,2.4623,2.4626,2.4628,2.4744,0,2.5398,2.5386,2.5282,2.5299,2.5278,2.5147,2.5144,2.5077,2.5006,2.4976,2.4897,2.4863,2.4775,2.4749,2.4752,2.4668,2.4719,2.4658,2.4612,2.4612,2.4638,2.4831,2.4891,2.5005,2.4757,2.4759,2.4761,0,2.555,2.5498,2.5514,2.5405,2.5392,2.5392,2.5327,2.5301,2.5221,2.5168,2.5122,2.5029,2.5015,2.4928,2.4905,2.4866,2.4841,2.4796,2.4798,2.4789,2.4695,2.4827,2.5038,2.5056,2.4782,2.478,2.4778,0,2.5738,2.5671,2.5671,2.5639,2.5513,2.5515,2.5462,2.5378,2.5348,2.5291,2.5269,2.5211,2.5179,2.5135,2.5028,2.4974,2.5016,2.492,2.497,2.4973,2.4985,2.4986,2.5195,2.4971,2.497,2.497,2.497,0,2.5895,2.5909,2.5754,2.5754,2.5765,2.5644,2.5657,2.5591,2.5517,2.55,2.5382,2.5368,2.5228,2.5197,2.5113,2.5105,2.5092,2.5047,2.5025,2.5058,2.5063,2.5039,2.5028,2.4974,2.4973,2.4973,2.4972,0,2.6107,2.6003,2.5995,2.5875,2.5846,2.5859,2.5755,2.5749,2.5671,2.565,2.5638,2.5515,2.5472,2.5361,2.5289,2.5232,2.5247,2.5205,2.5275,2.526,2.5316,2.5312,2.5516,2.5536,2.5301,2.5304,2.5306,0,2.6213,2.6221,2.6103,2.6084,2.6037,2.6007,2.5976,2.5856,2.5827,2.5736,2.574,2.5688,2.564,2.5577,2.5479,2.5422,2.5378,2.5453,2.5369,2.5401,2.5377,2.5378,2.5377,2.5472,2.5475,2.5478,2.548,0,2.6414,2.6362,2.6322,2.6265,2.6232,2.618,2.6122,2.6112,2.5976,2.595,2.5906,2.5869,2.5795,2.5744,2.5672,2.5613,2.5524,2.5508,2.5516,2.5549,2.5589,2.5567,2.5325,2.5503,2.5501,2.5499,2.5498,2.5497,2.6575,2.6575,2.6492,2.6451,2.6395,2.6342,2.633,2.625,2.6212,2.6144,2.6074,2.6037,2.5952,2.5846,2.5794,2.5761,2.5714,2.5727,2.573,2.5735,2.5749,2.5595,2.5747,2.5746,2.5746,2.5745,2.5744,0,2.6768,2.6707,2.6671,2.6594,2.6561,2.6481,2.6411,2.6389,2.6358,2.6288,2.6244,2.6191,2.614,2.6038,2.5977,2.597,2.5927,2.5958,2.5957,2.5944,2.5795,2.5793,2.5994,2.5994,2.5994,2.5994,2.5994,2.5993,2.6864,2.686,2.6798,2.6763,2.6701,2.6666,2.6632,2.6582,2.6526,2.6473,2.6431,2.6365,2.6281,2.6213,2.6162,2.6132,2.6115,2.6159,2.6117,2.5979,2.5955,2.5933,2.5931,2.6157,2.6157,2.6269,2.627,2.6271]}]]